Regional Weather Roundup
Issued by NWS

Home | Current Version | Previous Version | Graphics & Text | Print | Product List | Glossary On
Versions: 1 2 3 4 5 6 7 8 9 10 11 12 13 14 15 16 17 18 19 20 21 22 23 24 25 26 27 28 29 30 31 32 33 34 35 36 37 38 39 40 41 42 43 44 45 46 47 48 49 50
066
ASUS45 KABQ 260710
RWRNM
NEW MEXICO REGIONAL WEATHER ROUNDUP
NATIONAL WEATHER SERVICE ALBUQUERQUE NM
100 AM MDT THU MAY 26 2016

NOTE: "FAIR" MEANS FEW OR NO CLOUDS BELOW 12,000 FEET AGL WITH NO
       SIGNIFICANT WEATHER OR OBSTRUCTIONS TO VISION.

      THIS PRODUCT IS RELEASED AS TWO VERSIONS.  ONE VERSION NEAR
      THE TOP OF THE HOUR CONTAINING PRELIMINARY DATA FROM ALBUQUERQUE
      AND OTHER STATIONS.  A FINAL VERSION WITH ADDITIONAL DATA IS
      ISSUED ABOUT 10 MINUTES AFTER THE HOUR.

NMZ501-503-504-510>518-260800-
NORTHWEST PLATEAU/NORTHCENTRAL MOUNTAINS

CITY           SKY/WX    TMP DP  RH WIND       PRES   REMARKS
FARMINGTON     FAIR      55  12  18 CALM      29.98S
LOS ALAMOS     FAIR      57  22  25 E5        30.09S
SANTA FE       FAIR      52  21  29 N6        30.03S
TAOS           FAIR      46  19  34 E10       30.09F
ANGEL FIRE     FAIR      33  23  66 CALM      30.16F

$$
NMZ402-403-502-505>509-260800-
WESTCENTRAL MOUNTAINS/SOUTHWEST MOUNTAINS

CITY           SKY/WX    TMP DP  RH WIND       PRES   REMARKS
GALLUP         FAIR      44  18  35 NE6       30.07S
GRANTS         FAIR      44  16  32 N5        30.09S
SILVER CITY      N/A     63  14  15 W8        30.08R

$$
NMZ407-409-411-412-260800-
SOUTHERN DESERTS

CITY           SKY/WX    TMP DP  RH WIND       PRES   REMARKS
LORDSBURG      FAIR      63  19  19 W7        30.01S
DEMING         FAIR      69  17  13 W16       30.00S
LAS CRUCES     FAIR      66  12  12 W13       30.01S
HOLLOMAN AFB   FAIR      64  14  14 S8        29.96S
ALAMOGORDO     FAIR      64  14  14 S8        29.99S
T OR C         FAIR      68  15  13 SW8       29.98S

$$
NMZ519>523-260800-
CENTRAL VALLEYS/CENTRAL HIGHLANDS

CITY           SKY/WX    TMP DP  RH WIND       PRES   REMARKS
ALBUQUERQUE    FAIR      58  14  17 SE8       29.99S
DOUBLE EAGLE   FAIR      56  18  22 E5        30.02S
MORIARTY ARPT  FAIR      42  17  35 CALM      30.04F
CLINES CORNERS FAIR      50  15  24 SW12      30.06F
BELEN          FAIR      60  13  16 W10       29.98S
SOCORRO        FAIR      57  20  23 S7        29.98S

$$
NMZ524>526-539-540-260800-
SOUTHCENTRAL MOUNTAINS

CITY           SKY/WX    TMP DP  RH WIND       PRES   REMARKS
RUIDOSO          N/A     54  14  20 SW8       30.12F

$$
NMZ527>531-260800-
NORTHEAST HIGHLANDS/NORTHEAST PLAINS

CITY           SKY/WX    TMP DP  RH WIND       PRES   REMARKS
LAS VEGAS      FAIR      51  17  26 SW8       30.05F
RATON          FAIR      49  19  30 NE8       30.01F
CLAYTON        FAIR      56  24  29 W9        29.93F

$$
NMZ532>537-260800-
EASTCENTRAL PLAINS

CITY           SKY/WX    TMP DP  RH WIND       PRES   REMARKS
TUCUMCARI      FAIR      54  28  36 MISG      29.88F
CANNON AFB     FAIR      60  33  36 S8        29.93F
CLOVIS AIRPORT FAIR      57  34  41 S9G22     29.94S

$$
NMZ028-029-538-260800-
SOUTHEAST PLAINS

CITY           SKY/WX    TMP DP  RH WIND       PRES   REMARKS
ROSWELL        FAIR      67  23  19 S10       29.92R
ARTESIA        FAIR      70  28  21 S9        29.92S
CARLSBAD       FAIR      72  50  45 S7        29.90F
HOBBS          FAIR      73  61  64 S13G23    29.94S


$$




USA.gov is the U.S. government's official web portal to all federal, state and local government web resources and services.